Weather History for KM30 - January, 2014

Change the Weather History Date:

Tuesday, January 21, 2014

  Actual Average (KPAH) Record (KPAH)
Temperature  
Mean Temperature 26 °F 34 °F  
Max Temperature 39 °F 43 °F 70 °F (1986)
Min Temperature 13 °F 26 °F -10 °F (1985)
Degree Days  
Heating Degree Days 39 30  
Month to date heating degree days 647  
Since 1 July heating degree days 2278  
Cooling Degree Days 0 0  
Month to date cooling degree days 0  
Year to date cooling degree days 0  
Moisture  
Dew Point 12 °F    
Average Humidity 64    
Maximum Humidity 83    
Minimum Humidity 49    
Precipitation  
Precipitation 0.00 in 0.12 in 1.89 in (1973)
Month to date precipitation 2.48  
Year to date precipitation 2.48  
Snow  
Snow 0.00 in 0.10 in 1.00 in (1979)
Month to date snowfall 1.9  
Since 1 July snowfall 4.2  
Snow Depth -    
Sea Level Pressure  
Sea Level Pressure 30.16 in    
Wind  
Wind Speed 11 mph (NW)    
Max Wind Speed 30 mph    
Max Gust Speed 39 mph    
Visibility 10 miles    
Events Snow    
T = Trace of Precipitation, MM = Missing Value Source: NWS Daily Summary

Daily Weather History Graph

Daily Weather History Graph

Search for Another Location

Airport or City:

Trip Planner

Search our weather history database for the weather conditions in past years. The results will help you decide how hot, cold, wet, or windy it might be!

Date:

Astronomy

Jan. 21, 2014 Rise Set
Actual Time 7:05 AM CST 5:07 PM CST
Civil Twilight 6:37 AM CST 5:35 PM CST
Nautical Twilight 6:05 AM CST 6:07 PM CST
Astronomical Twilight 5:34 AM CST 6:38 PM CST
Moon 10:32 PM CST (1/21) 9:42 AM CST (1/21)
Length of Visible Light 10h 58m
Length of Day
10h 02m
Waning Gibbous, 74% of the Moon is Illuminated
Jan 21
Waning Gibbous
Jan 23
Last Quarter
Jan 30
New
Feb 6
First Quarter
Feb 14
Full

Hourly Weather History & Observations

Time (CST) Temp. Windchill Dew Point Humidity Pressure Visibility Wind Dir Wind Speed Gust Speed Precip Events Conditions
12:15 AM 33.1 °F 30.0 °F 27.7 °F 81% 29.89 in 10.0 mi West 3.5 mph - N/A   Scattered Clouds
12:35 AM 32.0 °F 27.5 °F 26.8 °F 81% 29.89 in 10.0 mi West 4.6 mph - N/A   Clear
12:55 AM 32.5 °F 29.3 °F 27.0 °F 80% 29.88 in 10.0 mi West 3.5 mph - N/A   Scattered Clouds
1:15 AM 31.8 °F 28.5 °F 27.1 °F 83% 29.88 in 10.0 mi West 3.5 mph - N/A   Scattered Clouds
1:35 AM 35.4 °F 32.6 °F 30.6 °F 82% 29.87 in 10.0 mi West 3.5 mph - N/A   Mostly Cloudy
1:55 AM 36.5 °F - 30.2 °F 78% 29.88 in 10.0 mi Calm Calm - N/A   Mostly Cloudy
2:15 AM 35.8 °F 31.9 °F 29.7 °F 78% 29.88 in 10.0 mi West 4.6 mph - N/A   Mostly Cloudy
2:35 AM 35.8 °F 31.9 °F 29.7 °F 78% 29.88 in 10.0 mi West 4.6 mph - N/A   Scattered Clouds
2:55 AM 36.5 °F 31.8 °F 29.3 °F 75% 29.88 in 10.0 mi West 5.8 mph - N/A   Clear
3:15 AM 36.7 °F 29.9 °F 29.3 °F 75% 29.88 in 10.0 mi WNW 9.2 mph - N/A   Scattered Clouds
3:35 AM 38.8 °F 32.1 °F 27.5 °F 64% 29.88 in 10.0 mi WNW 10.4 mph - N/A   Mostly Cloudy
3:55 AM 39.2 °F 31.2 °F 27.0 °F 62% 29.88 in 10.0 mi WNW 13.8 mph 18.4 mph N/A   Overcast
4:15 AM 38.3 °F 27.6 °F 26.8 °F 63% 29.90 in 10.0 mi NW 23.0 mph 32.2 mph N/A   Overcast
4:35 AM 36.7 °F 26.3 °F 26.1 °F 65% 29.91 in 10.0 mi NW 19.6 mph 29.9 mph N/A   Overcast
4:55 AM 36.0 °F 25.3 °F 26.1 °F 67% 29.92 in 10.0 mi WNW 19.6 mph 35.7 mph N/A   Overcast
5:15 AM 33.6 °F 21.9 °F 26.4 °F 75% 29.95 in 4.0 mi NNW 20.7 mph 31.1 mph N/A Snow Light Snow
5:35 AM 30.2 °F 16.2 °F 21.9 °F 71% 29.98 in 5.0 mi NW 25.3 mph 35.7 mph N/A Snow Light Snow
5:55 AM 27.7 °F 13.1 °F 20.5 °F 74% 30.01 in 5.0 mi NNW 24.2 mph 32.2 mph N/A Snow Light Snow
6:15 AM 26.1 °F 10.7 °F 17.6 °F 70% 30.03 in 10.0 mi NW 25.3 mph 33.4 mph N/A   Overcast
6:35 AM 24.6 °F 8.8 °F 15.6 °F 69% 30.05 in 10.0 mi NNW 25.3 mph 35.7 mph N/A   Mostly Cloudy
6:55 AM 23.7 °F 7.2 °F 15.3 °F 70% 30.08 in 7.0 mi NNW 26.5 mph 36.8 mph N/A Snow Light Snow
7:15 AM 22.6 °F 4.9 °F 12.0 °F 64% 30.10 in 10.0 mi NNW 29.9 mph 39.1 mph N/A   Overcast
7:35 AM 21.9 °F 5.1 °F 11.3 °F 64% 30.12 in 10.0 mi NNW 25.3 mph 38.0 mph N/A   Overcast
7:55 AM 21.6 °F 6.1 °F 11.1 °F 64% 30.15 in 10.0 mi NNW 20.7 mph 32.2 mph N/A   Mostly Cloudy
8:15 AM 20.8 °F 5.9 °F 11.3 °F 67% 30.17 in 5.0 mi NNW 18.4 mph 31.1 mph N/A Snow Light Snow
8:35 AM 20.1 °F 4.6 °F 10.0 °F 65% 30.18 in 5.0 mi NNW 19.6 mph 32.2 mph N/A Snow Light Snow
8:55 AM 20.1 °F 5.4 °F 9.3 °F 63% 30.20 in 10.0 mi North 17.3 mph 31.1 mph N/A   Overcast
9:15 AM 20.1 °F 4.6 °F 8.2 °F 60% 30.21 in 10.0 mi NNW 19.6 mph 27.6 mph N/A   Overcast
9:35 AM 19.6 °F 4.3 °F 7.9 °F 60% 30.24 in 10.0 mi NNW 18.4 mph 28.8 mph N/A   Overcast
9:55 AM 19.2 °F 2.2 °F 7.0 °F 59% 30.25 in 10.0 mi NNW 23.0 mph 32.2 mph N/A   Overcast
10:15 AM 20.1 °F 4.2 °F 6.8 °F 56% 30.25 in 10.0 mi NNW 20.7 mph 32.2 mph N/A   Mostly Cloudy
10:35 AM 19.8 °F 3.3 °F 7.0 °F 58% 30.26 in 10.0 mi NNW 21.9 mph 29.9 mph N/A   Mostly Cloudy
10:55 AM 21.2 °F 6.4 °F 6.8 °F 54% 30.26 in 10.0 mi North 18.4 mph 26.5 mph N/A   Scattered Clouds
11:15 AM 20.3 °F 7.2 °F 7.7 °F 58% 30.26 in 10.0 mi NNW 13.8 mph 23.0 mph N/A   Mostly Cloudy
11:35 AM 20.8 °F 5.9 °F 7.3 °F 56% 30.26 in 10.0 mi NNW 18.4 mph 23.0 mph N/A   Overcast
11:55 AM 21.9 °F 6.9 °F 7.5 °F 54% 30.26 in 10.0 mi NNW 19.6 mph 24.2 mph N/A   Mostly Cloudy
12:15 PM 22.6 °F 10.1 °F 6.1 °F 49% 30.25 in 10.0 mi North 13.8 mph 23.0 mph N/A   Scattered Clouds
12:35 PM 22.5 °F 9.4 °F 7.0 °F 52% 30.25 in 10.0 mi NNW 15.0 mph 23.0 mph N/A   Mostly Cloudy
12:55 PM 22.1 °F 10.0 °F 7.2 °F 53% 30.25 in 10.0 mi NNW 12.7 mph 24.2 mph N/A   Mostly Cloudy
1:15 PM 22.1 °F 8.9 °F 6.1 °F 50% 30.24 in 10.0 mi NNW 15.0 mph 23.0 mph N/A   Mostly Cloudy
1:35 PM 21.7 °F 8.5 °F 5.5 °F 50% 30.24 in 10.0 mi North 15.0 mph 24.2 mph N/A   Scattered Clouds
1:55 PM 22.6 °F 10.7 °F 5.9 °F 49% 30.25 in 10.0 mi North 12.7 mph 18.4 mph N/A   Scattered Clouds
2:15 PM 22.3 °F 12.2 °F 5.9 °F 50% 30.25 in 10.0 mi North 9.2 mph 16.1 mph N/A   Mostly Cloudy
2:35 PM 21.4 °F 8.5 °F 5.4 °F 50% 30.26 in 10.0 mi NNW 13.8 mph 21.9 mph N/A   Mostly Cloudy
2:55 PM 21.9 °F 11.0 °F 5.4 °F 49% 30.26 in 10.0 mi North 10.4 mph 19.6 mph N/A   Scattered Clouds
3:15 PM 21.7 °F 8.0 °F 5.2 °F 49% 30.27 in 10.0 mi NNW 16.1 mph 20.7 mph N/A   Mostly Cloudy
3:35 PM 21.0 °F 9.9 °F 5.5 °F 51% 30.27 in 10.0 mi North 10.4 mph 20.7 mph N/A   Mostly Cloudy
3:55 PM 21.0 °F 9.3 °F 5.2 °F 51% 30.27 in 10.0 mi NNW 11.5 mph 17.3 mph N/A   Scattered Clouds
4:15 PM 20.3 °F 9.0 °F 6.3 °F 55% 30.28 in 10.0 mi North 10.4 mph 18.4 mph N/A   Mostly Cloudy
4:35 PM 19.4 °F 7.9 °F 5.2 °F 54% 30.29 in 10.0 mi NW 10.4 mph 16.1 mph N/A   Scattered Clouds
4:55 PM 19.2 °F 7.0 °F 5.2 °F 54% 30.29 in 10.0 mi NNW 11.5 mph - N/A   Scattered Clouds
5:15 PM 18.5 °F 6.1 °F 5.7 °F 58% 30.29 in 10.0 mi NNW 11.5 mph 16.1 mph N/A   Scattered Clouds
5:35 PM 18.1 °F 7.1 °F 5.5 °F 58% 30.29 in 10.0 mi NNW 9.2 mph - N/A   Clear
5:55 PM 17.8 °F 7.5 °F 5.9 °F 60% 30.30 in 10.0 mi NNW 8.1 mph - N/A   Scattered Clouds
6:15 PM 17.4 °F 9.1 °F 5.9 °F 61% 30.29 in 10.0 mi North 5.8 mph - N/A   Scattered Clouds
6:35 PM 16.7 °F 7.2 °F 5.9 °F 63% 30.29 in 10.0 mi NNW 6.9 mph - N/A   Clear
6:55 PM 16.3 °F - 5.9 °F 64% 30.29 in 10.0 mi Calm Calm - N/A   Clear
7:15 PM 16.2 °F 10.6 °F 6.3 °F 65% 30.28 in 10.0 mi NW 3.5 mph - N/A   Mostly Cloudy
7:35 PM 15.8 °F 7.2 °F 6.8 °F 68% 30.28 in 10.0 mi NW 5.8 mph - N/A   Scattered Clouds
7:55 PM 15.6 °F 8.3 °F 6.6 °F 68% 30.28 in 10.0 mi NW 4.6 mph - N/A   Clear
8:15 PM 15.4 °F 8.1 °F 6.4 °F 68% 30.28 in 10.0 mi NW 4.6 mph - N/A   Clear
8:35 PM 15.4 °F 6.8 °F 6.4 °F 68% 30.28 in 10.0 mi NNW 5.8 mph - N/A   Clear
8:55 PM 14.9 °F 6.1 °F 6.6 °F 70% 30.27 in 10.0 mi North 5.8 mph - N/A   Clear
9:15 PM 14.7 °F 5.9 °F 6.6 °F 70% 30.27 in 10.0 mi NNW 5.8 mph - N/A   Clear
9:35 PM 14.5 °F 8.8 °F 5.9 °F 69% 30.26 in 10.0 mi North 3.5 mph - N/A   Clear
9:55 PM 13.8 °F - 5.9 °F 71% 30.26 in 10.0 mi Calm Calm - N/A   Clear
10:15 PM 13.5 °F - 6.6 °F 74% 30.25 in 10.0 mi Calm Calm - N/A   Clear
10:35 PM 13.8 °F - 7.5 °F 76% 30.27 in 10.0 mi Calm Calm - N/A   Clear
10:55 PM 14.7 °F - 6.6 °F 70% 30.27 in 10.0 mi Calm Calm - N/A   Clear
11:15 PM 14.9 °F - 6.8 °F 70% 30.26 in 10.0 mi Calm Calm - N/A   Clear
11:35 PM 14.9 °F - 7.0 °F 71% 30.26 in 10.0 mi Calm Calm - N/A   Clear
11:55 PM 15.1 °F - 7.2 °F 71% 30.26 in 10.0 mi Calm Calm - N/A   Clear